[[{"header":{"parameterUnit":"m.s-1","parameterCategory":1,"la1":30.2991,"la2":30.254,"lo1":-89.0895,"lo2":-89.0444,"dy":0.0017,"dx":0.0017,"nx":28,"ny":28,"refTime":"2024-11-30T09:00:00:Z","depth":0,"parameterNumber":2,"parameterNumberName":"U-component_of_WINDS"},"data":[0,0,0,0,0,0,0,0,0,0,0,0,0,0,0,0,0,0,0,0,0,0,0,0,0,0,0,0,0,0,0,0,0,0,0,0,0,0,0,0,0,0,0,0,0,0,0,0,0,0,0,0,0,0,0,0,0,0,-3.1701,-3.1702,0,-3.1777,-3.1778,-3.1778,-3.1741,-3.1739,-3.1737,-3.1735,-3.1809,-3.1812,-3.1816,0,0,0,0,0,0,0,0,0,0,0,0,0,-3.152,-3.1524,-3.1701,-3.1702,-3.1703,-3.1777,-3.1778,-3.1779,-3.1741,-3.1738,-3.1736,-3.1734,-3.1807,-3.1812,-3.1816,0,0,0,0,0,0,0,0,0,0,0,0,0,-3.1598,-3.1525,-3.1701,-3.1693,-3.1693,-3.1776,-3.1778,-3.1779,-3.1741,-3.1738,-3.1735,-3.1733,-3.1806,-3.1811,-3.1817,-3.1911,0,0,-3.1835,-3.1837,0,0,0,0,0,0,0,0,-3.1593,-3.1604,-3.1693,-3.1694,-3.1694,-3.1746,-3.1741,-3.1823,-3.1742,-3.1723,-3.1735,-3.1731,-3.179,-3.1797,-3.1817,-3.1915,-3.1918,-3.1835,-3.1838,-3.1841,-3.1843,0,0,0,0,0,0,0,-3.1588,-3.1601,-3.1731,-3.1695,-3.1695,-3.1685,-3.1692,-3.1756,-3.1772,-3.1724,-3.1722,-3.1732,-3.179,-3.1812,-3.1819,-3.1919,-3.1835,-3.184,-3.1843,-3.1846,-3.2095,-3.2098,0,0,0,0,0,0,-3.1583,-3.1597,-3.1729,-3.1733,-3.1635,-3.169,-3.1699,-3.1732,-3.1771,-3.1774,-3.1734,-3.1729,-3.1804,-3.1812,-3.1821,-3.1932,-3.1841,-3.1846,-3.185,-3.2092,-3.2096,-3.2099,0,0,0,0,0,0,-3.158,-3.1596,-3.1726,-3.1664,-3.168,-3.1697,-3.1735,-3.1735,-3.1758,-3.1779,-3.1781,-3.1754,-3.1802,-3.1813,-3.1889,-3.1934,-3.1849,-3.1854,-3.2088,-3.2093,-3.2098,-3.2156,0,0,0,0,0,0,-3.1575,-3.1594,-3.1631,-3.1665,-3.1683,-3.1793,-3.1737,-3.1739,-3.1768,-3.1763,-3.1798,-3.1801,-3.18,-3.1881,-3.1895,-3.1941,-3.1858,-3.2084,-3.209,-3.2096,-3.215,-3.2162,-3.2173,0,0,0,0,0,-3.1568,-3.1645,-3.1634,-3.165,-3.173,-3.1796,-3.1806,-3.1805,-3.1772,-3.1808,-3.1821,-3.18,-3.1928,-3.1889,-3.1904,-3.1953,-3.2081,-3.2089,-3.2096,-3.2145,-3.216,-3.2172,0,0,0,0,0,0,-3.1614,-3.1649,-3.1637,-3.1727,-3.1759,-3.1789,-3.1835,-3.1821,-3.1862,-3.1855,-3.1851,-3.1859,-3.1937,-3.1953,-3.1909,-3.2045,-3.1999,-3.201,-3.2031,-3.2046,-3.2057,-3.205,-3.1863,0,0,0,0,0,-3.1635,-3.1687,-3.1714,-3.1791,-3.1807,-3.1819,-3.1848,-3.1844,-3.1876,-3.1889,-3.1908,-3.1939,-3.1986,-3.2017,-3.2062,-3.2153,-3.2159,-3.2194,-3.2205,-3.2214,-3.2223,-3.227,-3.2285,-3.2123,-3.2123,-3.2123,0,0,-3.1678,-3.1704,-3.1737,-3.1801,-3.1825,-3.1877,-3.183,-3.1888,-3.1926,-3.1898,-3.197,-3.1985,-3.2019,-3.2103,-3.214,-3.2118,-3.2269,-3.2223,-3.2231,-3.2234,-3.2279,-3.2294,-3.2307,-3.2128,-3.2127,-3.2126,0,0,-3.1783,-3.1809,-3.1874,-3.19,-3.1937,-3.1944,-3.196,-3.1993,-3.2002,-3.2075,-3.2054,-3.2099,-3.2181,-3.2206,-3.2229,-3.2343,-3.2323,-3.2358,-3.2416,-3.2461,-3.2474,-3.2485,-3.2523,-3.2538,-3.2366,-3.2367,-3.2367,0,-3.1831,-3.191,-3.1909,-3.1968,-3.1996,-3.1974,-3.2039,-3.2064,-3.2114,-3.2133,-3.2108,-3.2209,-3.2231,-3.2318,-3.2346,-3.2367,-3.2383,-3.2352,-3.2473,-3.2484,-3.2494,-3.2531,-3.2545,-3.237,-3.237,-3.2369,-3.2369,0,-3.1967,-3.2022,-3.207,-3.2119,-3.2153,-3.2215,-3.2221,-3.2255,-3.2249,-3.2258,-3.2331,-3.2357,-3.2405,-3.2427,-3.2421,-3.2513,-3.2498,-3.2473,-3.2427,-3.2513,-3.2547,-3.2561,-3.2376,-3.2374,-3.2373,-3.2372,0,0,-3.2101,-3.215,-3.2167,-3.2188,-3.2228,-3.227,-3.233,-3.2378,-3.2406,-3.2442,-3.249,-3.256,-3.2537,-3.2564,-3.256,-3.2601,-3.2687,-3.2571,-3.2572,-3.2589,-3.2787,-3.2804,-3.282,-3.2675,-3.2678,-3.268,-3.2783,0,-3.2207,-3.2313,-3.2314,-3.2411,-3.246,-3.244,-3.2492,-3.2521,-3.2531,-3.2574,-3.2585,-3.2633,-3.26,-3.2616,-3.2656,-3.2668,-3.2726,-3.2661,-3.2718,-3.272,-3.2708,-3.2838,-3.2856,-3.2953,-3.2797,-3.2799,-3.2801,0,-3.2344,-3.2384,-3.2486,-3.2517,-3.2538,-3.2585,-3.2628,-3.267,-3.2702,-3.2707,-3.2736,-3.2727,-3.2786,-3.274,-3.282,-3.2776,-3.28,-3.281,-3.2813,-3.2816,-3.2764,-3.2842,-3.2983,-3.2997,-3.2822,-3.2821,-3.2819,0,-3.2429,-3.2509,-3.2579,-3.2599,-3.2638,-3.2671,-3.2688,-3.2718,-3.2746,-3.2784,-3.2802,-3.2846,-3.287,-3.2904,-3.2905,-3.2872,-3.2986,-3.2941,-3.2989,-3.2989,-3.3012,-3.301,-3.3156,-3.3032,-3.3032,-3.3032,-3.3031,0,-3.2545,-3.2608,-3.2618,-3.2661,-3.273,-3.273,-3.2797,-3.2812,-3.2838,-3.2883,-3.2869,-3.291,-3.2912,-3.2954,-3.2956,-3.3021,-3.3032,-3.3036,-3.3035,-3.3036,-3.3035,-3.305,-3.3042,-3.3035,-3.3035,-3.3034,-3.3033,0,-3.2651,-3.266,-3.2736,-3.2767,-3.2776,-3.2825,-3.2851,-3.2891,-3.29,-3.2957,-3.297,-3.2984,-3.3033,-3.3039,-3.3096,-3.3097,-3.3175,-3.3168,-3.3164,-3.3162,-3.3209,-3.3204,-3.3368,-3.3388,-3.3253,-3.3254,-3.3255,0,-3.2723,-3.2771,-3.2807,-3.2836,-3.2856,-3.2903,-3.2932,-3.2933,-3.2964,-3.3004,-3.3039,-3.3087,-3.3125,-3.3204,-3.3218,-3.3261,-3.3254,-3.3309,-3.326,-3.3259,-3.3252,-3.3248,-3.3251,-3.3317,-3.3319,-3.332,-3.3321,0,-3.285,-3.2852,-3.2895,-3.294,-3.2975,-3.3009,-3.3042,-3.3067,-3.3072,-3.3107,-3.3157,-3.3187,-3.3245,-3.3292,-3.3334,-3.3351,-3.3336,-3.3336,-3.3349,-3.3349,-3.3344,-3.3345,-3.3186,-3.3332,-3.3331,-3.333,-3.3329,-3.3329,-3.294,-3.298,-3.3012,-3.3059,-3.3084,-3.3115,-3.3154,-3.3168,-3.321,-3.3258,-3.3256,-3.3311,-3.334,-3.3396,-3.3416,-3.3458,-3.3439,-3.3459,-3.3464,-3.3468,-3.3471,-3.3339,-3.3466,-3.3466,-3.3465,-3.3465,-3.3465,0,-3.3063,-3.3083,-3.3127,-3.3173,-3.321,-3.3195,-3.323,-3.3261,-3.331,-3.3339,-3.3377,-3.3434,-3.3479,-3.3497,-3.3541,-3.3571,-3.3565,-3.3582,-3.3578,-3.3582,-3.3486,-3.347,-3.3586,-3.3586,-3.3586,-3.3586,-3.3586,-3.3586,-3.3132,-3.3199,-3.3205,-3.3284,-3.3302,-3.3356,-3.3377,-3.3404,-3.3428,-3.3492,-3.353,-3.3542,-3.3566,-3.3611,-3.3651,-3.3655,-3.3671,-3.369,-3.3691,-3.3601,-3.3589,-3.3577,-3.3561,-3.3695,-3.3695,-3.3783,-3.3784,-3.3784]},{"header":{"parameterUnit":"m.s-1","parameterCategory":1,"la1":30.2991,"la2":30.254,"lo1":-89.0895,"lo2":-89.0444,"dy":0.0017,"dx":0.0017,"nx":28,"ny":28,"refTime":"2024-11-30T09:00:00:Z","depth":0,"parameterNumber":3,"parameterNumberName":"V-component_of_WINDS"},"data":[0,0,0,0,0,0,0,0,0,0,0,0,0,0,0,0,0,0,0,0,0,0,0,0,0,0,0,0,0,0,0,0,0,0,0,0,0,0,0,0,0,0,0,0,0,0,0,0,0,0,0,0,0,0,0,0,0,0,-0.6402,-0.6403,0,-0.6456,-0.6457,-0.6457,-0.6495,-0.6495,-0.6495,-0.6495,-0.6552,-0.6554,-0.6555,0,0,0,0,0,0,0,0,0,0,0,0,0,-0.6333,-0.6334,-0.6402,-0.6403,-0.6404,-0.6456,-0.6457,-0.6457,-0.6494,-0.6495,-0.6495,-0.6495,-0.6552,-0.6553,-0.6555,0,0,0,0,0,0,0,0,0,0,0,0,0,-0.6372,-0.6334,-0.6402,-0.6428,-0.6431,-0.6456,-0.6457,-0.6458,-0.6494,-0.6495,-0.6495,-0.6496,-0.6551,-0.6553,-0.6555,-0.6559,0,0,-0.6561,-0.6562,0,0,0,0,0,0,0,0,-0.637,-0.6375,-0.6424,-0.6427,-0.643,-0.6469,-0.6453,-0.6492,-0.6494,-0.647,-0.6495,-0.6496,-0.6524,-0.6528,-0.6538,-0.6561,-0.6564,-0.6561,-0.6562,-0.6563,-0.6564,0,0,0,0,0,0,0,-0.6367,-0.6373,-0.6424,-0.6424,-0.6428,-0.6438,-0.6444,-0.6461,-0.6495,-0.6473,-0.6475,-0.6481,-0.6526,-0.6536,-0.6539,-0.6565,-0.6561,-0.6563,-0.6564,-0.6565,-0.6593,-0.6593,0,0,0,0,0,0,-0.636,-0.637,-0.6422,-0.6425,-0.64,-0.6439,-0.6446,-0.6456,-0.6494,-0.6501,-0.6481,-0.6483,-0.6532,-0.6537,-0.6542,-0.6548,-0.6563,-0.6565,-0.6566,-0.6594,-0.6593,-0.6593,0,0,0,0,0,0,-0.6359,-0.6365,-0.642,-0.6399,-0.6406,-0.6439,-0.6451,-0.6457,-0.6467,-0.6501,-0.6507,-0.6484,-0.6533,-0.6539,-0.6554,-0.655,-0.6566,-0.6567,-0.6594,-0.6594,-0.6593,-0.656,0,0,0,0,0,0,-0.6357,-0.6364,-0.6365,-0.6398,-0.6407,-0.6431,-0.6451,-0.6458,-0.647,-0.6473,-0.6506,-0.6512,-0.6534,-0.6551,-0.6556,-0.6553,-0.6569,-0.6595,-0.6594,-0.6593,-0.6562,-0.6559,-0.6556,0,0,0,0,0,-0.6354,-0.6354,-0.6365,-0.6371,-0.641,-0.643,-0.6436,-0.646,-0.6469,-0.6471,-0.6493,-0.6511,-0.655,-0.6552,-0.6558,-0.6556,-0.6595,-0.6594,-0.6593,-0.6563,-0.6559,-0.6556,0,0,0,0,0,0,-0.6321,-0.6359,-0.6371,-0.6382,-0.6403,-0.6436,-0.644,-0.6456,-0.6474,-0.6477,-0.6507,-0.6514,-0.6526,-0.6543,-0.6544,-0.6561,-0.6575,-0.6575,-0.655,-0.6546,-0.6544,-0.6539,-0.657,0,0,0,0,0,-0.6314,-0.6327,-0.6361,-0.6367,-0.6377,-0.6406,-0.6416,-0.6433,-0.6456,-0.6465,-0.6488,-0.651,-0.6527,-0.6538,-0.6556,-0.6565,-0.6572,-0.6566,-0.6563,-0.6561,-0.656,-0.6566,-0.6564,-0.659,-0.659,-0.659,0,0,-0.6302,-0.6325,-0.6331,-0.6361,-0.6379,-0.6392,-0.6413,-0.6426,-0.6437,-0.6467,-0.6483,-0.65,-0.6526,-0.6538,-0.6545,-0.6552,-0.6555,-0.656,-0.6557,-0.6559,-0.6565,-0.6563,-0.656,-0.6589,-0.659,-0.659,0,0,-0.6286,-0.6304,-0.6311,-0.6329,-0.6355,-0.6374,-0.6376,-0.6407,-0.642,-0.6436,-0.6459,-0.6472,-0.6501,-0.6518,-0.6531,-0.6521,-0.6538,-0.6526,-0.6511,-0.6516,-0.6514,-0.6512,-0.6508,-0.6507,-0.6526,-0.6526,-0.6526,0,-0.6267,-0.6287,-0.6313,-0.6325,-0.6337,-0.6365,-0.6372,-0.6388,-0.6419,-0.6427,-0.6435,-0.6472,-0.6492,-0.6508,-0.6505,-0.6515,-0.6518,-0.6522,-0.6512,-0.6511,-0.6509,-0.6506,-0.6505,-0.6524,-0.6524,-0.6525,-0.6525,0,-0.6263,-0.6276,-0.6279,-0.6307,-0.632,-0.633,-0.6358,-0.6368,-0.6384,-0.6403,-0.6418,-0.6443,-0.6466,-0.6471,-0.6487,-0.6489,-0.6493,-0.6506,-0.652,-0.6505,-0.6502,-0.6501,-0.6522,-0.6522,-0.6523,-0.6523,0,0,-0.6227,-0.6269,-0.627,-0.6283,-0.6314,-0.6325,-0.6336,-0.6358,-0.6366,-0.6386,-0.6396,-0.642,-0.6432,-0.6446,-0.6465,-0.6469,-0.6459,-0.6482,-0.6483,-0.6477,-0.6463,-0.6453,-0.6451,-0.6471,-0.6471,-0.6471,-0.6461,0,-0.6215,-0.6236,-0.6259,-0.6271,-0.6284,-0.6311,-0.632,-0.634,-0.6358,-0.6372,-0.6392,-0.6408,-0.6423,-0.6432,-0.6438,-0.6459,-0.6457,-0.646,-0.6481,-0.6481,-0.6473,-0.645,-0.6439,-0.6428,-0.646,-0.646,-0.646,0,-0.6205,-0.6223,-0.6236,-0.6265,-0.6272,-0.628,-0.6301,-0.6314,-0.6338,-0.635,-0.6366,-0.6386,-0.6399,-0.6411,-0.643,-0.6431,-0.6441,-0.6453,-0.6453,-0.6456,-0.6469,-0.6451,-0.6425,-0.6424,-0.6458,-0.6458,-0.6459,0,-0.6177,-0.6205,-0.6216,-0.6226,-0.6261,-0.6266,-0.6281,-0.6305,-0.6316,-0.6335,-0.6343,-0.6364,-0.6375,-0.6391,-0.6416,-0.6422,-0.6431,-0.6446,-0.6442,-0.6442,-0.6443,-0.6443,-0.6418,-0.6449,-0.645,-0.645,-0.645,0,-0.6161,-0.6168,-0.6204,-0.6211,-0.6219,-0.6247,-0.6255,-0.6272,-0.6293,-0.6304,-0.6328,-0.6338,-0.6371,-0.6385,-0.6404,-0.6416,-0.6421,-0.6432,-0.6437,-0.643,-0.6428,-0.6437,-0.6438,-0.6449,-0.6449,-0.6449,-0.6449,0,-0.6131,-0.6155,-0.6169,-0.6201,-0.6209,-0.6214,-0.6241,-0.6249,-0.6268,-0.6282,-0.6287,-0.6317,-0.6334,-0.6361,-0.6387,-0.64,-0.6409,-0.6417,-0.64,-0.6403,-0.6398,-0.6398,-0.6378,-0.6377,-0.6409,-0.6408,-0.6408,0,-0.6119,-0.6125,-0.6157,-0.6165,-0.6179,-0.6193,-0.6205,-0.6232,-0.6243,-0.627,-0.6275,-0.6294,-0.6311,-0.6338,-0.6363,-0.6382,-0.6391,-0.6383,-0.6395,-0.6387,-0.6391,-0.639,-0.6391,-0.638,-0.638,-0.6379,-0.6379,0,-0.6095,-0.6107,-0.6122,-0.6142,-0.6155,-0.6172,-0.619,-0.6196,-0.6227,-0.6238,-0.6256,-0.6269,-0.6295,-0.6314,-0.6337,-0.6353,-0.6371,-0.6375,-0.6375,-0.6367,-0.6357,-0.6362,-0.6393,-0.6375,-0.6376,-0.6376,-0.6376,-0.6376,-0.6074,-0.608,-0.6103,-0.612,-0.6136,-0.6152,-0.6161,-0.6181,-0.6196,-0.6219,-0.6234,-0.6251,-0.6275,-0.6307,-0.6322,-0.6336,-0.6344,-0.6344,-0.6344,-0.6344,-0.6341,-0.6355,-0.6341,-0.6341,-0.6341,-0.6341,-0.6341,0,-0.6051,-0.6067,-0.6082,-0.6106,-0.6119,-0.6134,-0.6155,-0.6165,-0.6179,-0.6199,-0.6215,-0.6236,-0.6254,-0.628,-0.63,-0.6306,-0.6315,-0.6311,-0.6311,-0.6314,-0.6333,-0.6331,-0.6303,-0.6303,-0.6303,-0.6303,-0.6303,-0.6303,-0.6041,-0.6052,-0.6066,-0.6086,-0.6102,-0.6118,-0.6129,-0.6144,-0.616,-0.6182,-0.6197,-0.6213,-0.6236,-0.6258,-0.6276,-0.6283,-0.6289,-0.6282,-0.6292,-0.6309,-0.6313,-0.6316,-0.6314,-0.6283,-0.6283,-0.6272,-0.6271,-0.6271]}]]